TimeMST,TemperatureF,Dew PointF,Humidity,Sea Level PressureIn,VisibilityMPH,Wind Direction,Wind SpeedMPH,Gust SpeedMPH,PrecipitationIn,Events,Conditions,WindDirDegrees,DateUTC
12:15 AM,39.2,24.8,56,30.03,10.0,SW,9.2,-,N/A,,Partly Cloudy,230,2012-11-19 07:15:00
12:35 AM,39.2,26.6,61,30.03,10.0,SW,8.1,-,N/A,,Scattered Clouds,230,2012-11-19 07:35:00
12:55 AM,39.2,24.8,56,30.03,10.0,WSW,6.9,-,N/A,,Scattered Clouds,240,2012-11-19 07:55:00
1:15 AM,39.2,24.8,56,30.03,10.0,WSW,8.1,-,N/A,,Partly Cloudy,240,2012-11-19 08:15:00
1:35 AM,39.2,24.8,56,30.03,10.0,North,5.8,-,N/A,,Clear,350,2012-11-19 08:35:00
1:55 AM,39.2,23.0,52,30.04,10.0,ESE,5.8,-,N/A,,Clear,110,2012-11-19 08:55:00
2:15 AM,35.6,21.2,56,30.03,10.0,SSE,11.5,-,N/A,,Clear,150,2012-11-19 09:15:00
2:35 AM,35.6,21.2,56,30.04,10.0,South,8.1,-,N/A,,Clear,190,2012-11-19 09:35:00
2:55 AM,41.0,23.0,49,30.05,10.0,South,9.2,-,N/A,,Clear,180,2012-11-19 09:55:00
3:15 AM,42.8,23.0,46,30.03,10.0,South,12.7,20.7,N/A,,Partly Cloudy,180,2012-11-19 10:15:00
3:35 AM,42.8,21.2,42,30.03,10.0,SW,11.5,17.3,N/A,,Clear,230,2012-11-19 10:35:00
3:55 AM,42.8,23.0,46,30.03,10.0,SW,13.8,-,N/A,,Clear,230,2012-11-19 10:55:00
4:15 AM,42.8,23.0,46,30.03,10.0,SSW,13.8,18.4,N/A,,Clear,210,2012-11-19 11:15:00
4:35 AM,42.8,23.0,46,30.03,10.0,SSW,12.7,20.7,N/A,,Clear,210,2012-11-19 11:35:00
4:55 AM,42.8,23.0,46,30.03,10.0,SSW,15.0,-,N/A,,Clear,210,2012-11-19 11:55:00
5:15 AM,41.0,23.0,49,30.04,10.0,SSW,13.8,17.3,N/A,,Clear,210,2012-11-19 12:15:00
5:35 AM,42.8,24.8,49,30.05,10.0,South,13.8,-,N/A,,Clear,190,2012-11-19 12:35:00
5:55 AM,42.8,24.8,49,30.05,10.0,South,11.5,-,N/A,,Mostly Cloudy,190,2012-11-19 12:55:00
6:35 AM,42.8,24.8,49,30.05,10.0,SW,6.9,-,N/A,,Mostly Cloudy,220,2012-11-19 13:35:00
6:55 AM,37.4,21.2,52,30.05,10.0,SSW,5.8,-,N/A,,Mostly Cloudy,200,2012-11-19 13:55:00
7:15 AM,33.8,19.4,56,30.06,10.0,SSW,15.0,-,N/A,,Partly Cloudy,200,2012-11-19 14:15:00
7:35 AM,41.0,23.0,49,30.05,10.0,SW,17.3,-,N/A,,Clear,220,2012-11-19 14:35:00
7:55 AM,46.4,24.8,43,30.05,10.0,WSW,17.3,24.2,N/A,,Clear,240,2012-11-19 14:55:00
8:15 AM,46.4,24.8,43,30.05,10.0,WSW,11.5,19.6,N/A,,Clear,240,2012-11-19 15:15:00
8:35 AM,46.4,24.8,43,30.07,10.0,SW,12.7,16.1,N/A,,Clear,220,2012-11-19 15:35:00
8:55 AM,46.4,24.8,43,30.06,10.0,SW,13.8,-,N/A,,Clear,220,2012-11-19 15:55:00
9:15 AM,46.4,26.6,46,30.07,10.0,SSW,13.8,-,N/A,,Clear,210,2012-11-19 16:15:00
9:35 AM,50.0,26.6,40,30.07,10.0,WSW,13.8,24.2,N/A,,Clear,250,2012-11-19 16:35:00
9:55 AM,50.0,26.6,40,30.07,10.0,WSW,13.8,25.3,N/A,,Clear,250,2012-11-19 16:55:00
10:15 AM,50.0,26.6,40,30.07,10.0,WSW,11.5,25.3,N/A,,Clear,240,2012-11-19 17:15:00
10:35 AM,50.0,26.6,40,30.08,10.0,WSW,10.4,18.4,N/A,,Clear,250,2012-11-19 17:35:00
10:55 AM,51.8,26.6,38,30.07,10.0,West,10.4,19.6,N/A,,Clear,260,2012-11-19 17:55:00
11:15 AM,51.8,26.6,38,30.08,10.0,WSW,13.8,18.4,N/A,,Clear,250,2012-11-19 18:15:00
11:35 AM,53.6,26.6,35,30.07,10.0,WSW,11.5,21.9,N/A,,Clear,250,2012-11-19 18:35:00
11:55 AM,53.6,26.6,35,30.07,10.0,WSW,12.7,23.0,N/A,,Clear,250,2012-11-19 18:55:00
12:15 PM,55.4,26.6,33,30.06,10.0,WSW,12.7,20.7,N/A,,Clear,250,2012-11-19 19:15:00
12:35 PM,55.4,26.6,33,30.07,10.0,WSW,10.4,23.0,N/A,,Clear,250,2012-11-19 19:35:00
12:55 PM,55.4,28.4,36,30.06,10.0,West,12.7,20.7,N/A,,Clear,260,2012-11-19 19:55:00
1:15 PM,55.4,26.6,33,30.06,10.0,West,13.8,23.0,N/A,,Clear,260,2012-11-19 20:15:00
1:35 PM,53.6,26.6,35,30.05,10.0,West,15.0,19.6,N/A,,Clear,270,2012-11-19 20:35:00
1:55 PM,53.6,26.6,35,30.05,10.0,WSW,15.0,24.2,N/A,,Clear,250,2012-11-19 20:55:00
2:15 PM,53.6,26.6,35,30.05,10.0,WSW,13.8,23.0,N/A,,Clear,250,2012-11-19 21:15:00
2:35 PM,53.6,26.6,35,30.06,10.0,West,10.4,21.9,N/A,,Clear,260,2012-11-19 21:35:00
2:55 PM,53.6,26.6,35,30.05,10.0,West,18.4,23.0,N/A,,Clear,260,2012-11-19 21:55:00
3:35 PM,51.8,26.6,38,30.05,10.0,West,16.1,24.2,N/A,,Clear,260,2012-11-19 22:35:00
3:55 PM,53.6,26.6,35,30.04,10.0,WSW,13.8,21.9,N/A,,Clear,240,2012-11-19 22:55:00
4:15 PM,51.8,26.6,38,30.04,10.0,WSW,15.0,27.6,N/A,,Clear,240,2012-11-19 23:15:00
4:35 PM,51.8,26.6,38,30.04,10.0,WSW,16.1,29.9,N/A,,Clear,240,2012-11-19 23:35:00
4:55 PM,51.8,24.8,35,30.06,10.0,WSW,16.1,25.3,N/A,,Clear,240,2012-11-19 23:55:00
5:15 PM,50.0,24.8,37,30.06,10.0,WSW,12.7,25.3,N/A,,Clear,240,2012-11-20 00:15:00
5:35 PM,50.0,24.8,37,30.07,10.0,WSW,17.3,27.6,N/A,,Clear,250,2012-11-20 00:35:00
5:55 PM,50.0,26.6,40,30.07,10.0,SW,17.3,23.0,N/A,,Clear,230,2012-11-20 00:55:00
6:15 PM,50.0,24.8,37,30.07,10.0,SW,13.8,24.2,N/A,,Clear,230,2012-11-20 01:15:00
6:35 PM,48.2,24.8,40,30.07,10.0,SW,11.5,25.3,N/A,,Clear,230,2012-11-20 01:35:00
6:55 PM,48.2,24.8,40,30.07,10.0,WSW,12.7,19.6,N/A,,Clear,240,2012-11-20 01:55:00
7:35 PM,50.0,24.8,37,30.06,10.0,SW,17.3,24.2,N/A,,Clear,230,2012-11-20 02:35:00
8:15 PM,50.0,26.6,40,30.06,10.0,WSW,11.5,19.6,N/A,,Clear,240,2012-11-20 03:15:00
8:35 PM,50.0,26.6,40,30.06,10.0,WSW,8.1,16.1,N/A,,Clear,240,2012-11-20 03:35:00
8:55 PM,44.6,24.8,46,30.06,10.0,SSE,5.8,-,N/A,,Clear,150,2012-11-20 03:55:00
9:15 PM,44.6,24.8,46,30.05,10.0,South,9.2,-,N/A,,Clear,180,2012-11-20 04:15:00
9:35 PM,44.6,24.8,46,30.04,10.0,SW,10.4,-,N/A,,Clear,220,2012-11-20 04:35:00
9:55 PM,46.4,26.6,46,30.04,10.0,SSW,15.0,19.6,N/A,,Clear,200,2012-11-20 04:55:00
10:15 PM,50.0,26.6,40,30.02,10.0,SW,16.1,25.3,N/A,,Clear,230,2012-11-20 05:15:00
10:35 PM,50.0,26.6,40,30.04,10.0,SW,13.8,18.4,N/A,,Clear,230,2012-11-20 05:35:00
10:55 PM,51.8,26.6,38,30.02,10.0,SW,21.9,29.9,N/A,,Clear,230,2012-11-20 05:55:00
11:15 PM,51.8,26.6,38,30.03,10.0,WSW,15.0,27.6,N/A,,Clear,240,2012-11-20 06:15:00
11:35 PM,51.8,26.6,38,30.04,10.0,WSW,16.1,28.8,N/A,,Clear,240,2012-11-20 06:35:00